Theta_e
324 326 326 327 328 331 332 330 328 331 332 332 332 335 334 336 337 339 338 340 341 342 341 341 341 339 337 339 339 338 337 337 338 338 339 336 334 334 334 335 341 340
324 325 327 328 328 330 332 333 333 331 334 336 337 338 339 338 338 337 338 338 339 339 341 341 342 341 341 339 341 341 340 340 338 339 337 334 334 336 337 340 342 342
322 324 326 327 328 330 331 333 335 335 334 334 336 338 338 339 339 339 339 339 338 338 338 340 340 338 339 339 339 341 341 341 341 341 337 334 336 339 338 341 342 342
322 324 324 325 327 329 331 332 333 334 335 334 335 336 336 338 339 337 336 337 337 337 337 336 336 338 338 336 335 334 337 337 337 337 335 336 338 338 337 342 340 339
323 323 325 325 325 328 330 330 330 331 332 333 335 335 335 335 335 334 334 335 337 337 336 336 336 336 337 336 335 335 334 336 335 334 334 334 335 337 336 339 338 339
323 323 324 325 327 328 328 328 328 329 329 331 333 334 335 333 334 334 334 334 335 336 336 336 335 335 335 335 336 333 334 335 336 332 331 331 333 335 335 338 338 338
321 322 324 325 326 328 328 328 329 330 330 332 332 333 334 334 331 330 333 333 333 333 334 334 334 334 336 335 334 333 335 332 330 331 334 335 338 335 336 337 337 337
320 321 321 323 326 327 326 327 328 328 330 331 332 333 334 331 333 333 333 333 332 332 333 333 332 332 332 331 333 330 331 335 332 329 330 332 335 332 333 336 337 335
319 319 320 321 323 324 325 325 327 328 329 329 329 331 333 332 332 333 331 329 330 330 330 330 330 332 330 329 328 329 331 333 332 332 331 330 329 331 331 331 328 330
318 319 320 320 321 321 322 323 325 327 327 328 329 329 327 328 327 327 325 327 325 324 324 326 325 327 328 326 328 325 325 328 328 328 328 329 328 329 330 330 330 331
317 318 318 319 320 320 322 322 324 325 326 326 325 327 328 328 327 326 328 327 327 324 322 320 320 320 320 320 322 327 328 327 326 326 327 327 330 331 330 331 331 330
316 317 317 318 319 320 320 321 322 323 324 325 325 325 327 327 325 326 324 321 320 318 317 316 315 314 313 313 315 319 323 326 328 327 330 331 331 333 333 334 333 331
314 315 317 318 319 319 320 320 321 321 321 322 324 324 324 324 324 320 318 316 313 312 311 311 311 309 308 309 310 313 317 324 327 329 327 327 327 329 332 334 335 335
314 315 315 315 317 318 318 319 319 319 320 321 322 323 323 321 318 317 314 313 311 310 308 308 306 304 303 303 304 306 310 317 325 327 328 329 331 331 331 331 333 332
314 315 315 315 315 316 317 317 317 318 318 319 320 321 321 320 318 315 313 311 309 307 305 304 303 301 299 297 298 301 304 310 321 326 326 327 327 328 329 329 329 332
313 314 314 315 316 316 316 316 315 316 316 316 317 318 319 319 318 317 313 310 308 307 306 304 301 300 297 294 294 296 301 308 315 323 324 324 324 324 325 326 327 328
312 312 313 313 314 315 315 314 314 314 314 314 315 315 316 317 317 316 315 313 308 306 305 303 300 296 292 291 292 292 299 306 313 320 323 324 324 324 323 323 324 324
310 311 312 312 313 313 314 313 313 313 313 313 313 314 314 314 313 312 312 313 312 308 305 303 300 293 291 291 291 291 294 302 314 317 320 320 319 317 317 320 321 322
310 310 310 311 311 312 313 312 312 312 312 312 312 313 313 312 312 311 311 311 312 309 306 303 299 292 290 290 291 290 291 297 312 314 315 315 314 314 313 315 315 316
309 309 309 310 310 311 311 311 311 310 311 312 312 312 312 311 311 311 310 310 310 310 309 304 298 292 290 290 290 290 291 294 311 311 313 312 312 311 312 313 314 314
309 309 309 309 310 310 311 310 310 310 310 310 311 311 310 310 309 309 309 309 309 309 308 306 298 290 290 290 290 290 290 296 310 310 310 310 310 309 310 311 312 311
308 308 309 309 309 309 309 309 309 310 309 310 310 310 311 310 310 309 308 307 307 307 307 305 300 290 290 290 290 290 291 306 307 308 308 308 307 307 308 310 310 308
308 308 308 308 308 308 307 307 308 308 308 309 309 309 309 308 309 308 308 306 305 304 305 304 302 293 290 290 290 289 294 304 305 306 306 306 306 306 307 308 308 306
307 307 307 307 307 306 307 307 308 308 308 308 307 307 306 307 307 307 307 306 304 302 302 302 302 295 290 290 290 289 292 301 303 303 303 303 304 306 306 307 307 304
307 307 307 307 306 306 307 306 306 306 307 308 307 307 307 307 306 306 305 305 305 303 300 300 302 298 291 290 289 289 292 299 301 301 300 300 302 303 305 306 305 305
307 307 307 306 306 306 307 306 307 307 307 307 307 306 306 306 306 305 304 303 304 304 302 301 301 301 295 290 290 290 289 295 300 298 297 297 300 301 302 304 304 303
Wind_Speed
9 8 8 7 6 6 7 7 7 7 7 7 7 7 6 6 6 6 8 8 8 8 8 9 9 9 10 12 12 11 10 11 10 8 7 5 5 10 13 14 13 10
9 9 7 7 7 7 7 6 6 6 6 7 7 7 6 6 6 6 7 8 9 9 8 9 9 9 9 9 10 10 10 11 12 9 7 7 7 11 15 15 12 11
10 10 9 8 7 9 8 7 6 4 4 6 7 7 6 6 6 6 6 7 8 8 9 7 8 9 9 9 9 10 9 9 9 7 7 8 9 8 11 12 10 10
9 9 8 8 8 8 8 7 7 6 6 5 5 6 6 6 6 6 6 7 8 8 7 7 8 9 9 8 8 8 9 8 6 6 7 8 9 9 12 10 11 10
10 9 9 8 7 8 8 8 8 8 7 7 6 6 5 5 6 6 5 6 6 7 7 8 9 9 8 8 8 7 9 9 8 9 10 10 10 11 11 10 10 11
10 10 9 9 8 8 7 7 8 8 8 8 8 7 7 7 5 5 5 5 6 6 6 7 8 8 8 10 7 7 8 8 9 11 13 13 12 11 10 9 10 10
10 10 10 9 10 9 8 8 7 8 8 8 8 7 7 7 7 8 5 5 6 6 6 6 7 8 7 8 9 10 7 10 14 13 11 11 8 9 9 7 7 7
10 10 9 9 10 8 8 8 8 8 8 8 8 7 7 7 7 6 5 4 5 6 5 6 6 8 8 8 7 8 10 6 4 6 8 10 5 7 7 6 5 6
9 9 10 10 10 8 9 9 8 8 8 8 8 8 7 7 6 7 8 9 7 5 7 7 7 6 7 9 9 10 10 6 6 6 6 6 4 4 6 6 8 9
8 9 9 10 10 9 10 10 9 8 8 9 8 8 9 8 10 10 9 9 9 10 10 9 10 8 8 6 8 6 6 7 7 6 3 3 6 8 9 8 8 8
8 8 8 9 9 8 10 9 9 9 8 9 9 9 9 8 8 9 7 8 8 9 9 9 10 12 12 12 10 9 10 9 8 8 8 7 6 7 8 8 8 10
8 8 8 9 9 8 9 9 9 9 9 8 8 9 9 9 9 8 9 11 11 12 12 12 11 12 12 12 11 10 9 7 5 5 6 6 6 6 7 7 7 6
8 9 8 9 9 9 9 9 9 9 9 9 8 8 9 10 11 11 10 11 11 10 11 11 11 12 12 12 13 13 11 10 10 8 7 6 6 7 7 7 8 8
7 7 8 7 8 8 8 8 8 8 9 9 9 9 9 10 10 10 9 10 9 10 10 10 11 13 14 14 12 12 12 12 11 10 10 9 10 9 9 8 9 9
6 6 6 7 7 8 8 8 8 8 8 9 9 9 8 8 9 9 9 9 9 9 10 10 11 11 11 12 12 13 12 11 12 11 10 10 10 10 9 10 10 8
7 6 7 7 8 8 8 8 8 8 8 8 9 9 9 8 8 8 9 9 9 10 9 9 10 9 15 19 15 11 11 9 9 10 10 9 9 9 9 10 10 9
6 6 6 7 7 8 8 8 8 7 7 8 8 9 9 9 8 9 8 8 9 9 9 8 10 12 20 17 18 19 13 9 8 8 9 9 9 10 9 9 9 9
5 6 6 7 7 7 8 8 8 8 8 8 8 8 8 8 8 9 8 8 7 8 8 8 10 18 19 21 20 20 16 11 7 6 7 7 8 8 8 8 9 9
5 5 5 6 6 7 7 7 8 8 8 8 8 7 7 8 8 8 8 7 8 8 8 9 10 20 20 21 21 21 18 14 6 6 6 6 7 8 8 8 8 8
5 5 5 5 6 6 6 7 8 8 8 7 6 7 7 7 7 8 8 8 8 8 8 9 12 20 21 23 22 22 20 15 6 7 6 6 7 8 7 8 8 8
5 5 5 5 6 6 7 7 7 7 8 7 6 6 7 7 7 7 8 8 9 8 7 8 11 20 20 21 22 23 22 16 6 7 6 6 7 8 7 7 8 8
5 5 5 5 6 6 6 7 7 7 7 6 5 6 6 6 5 6 7 8 9 9 8 8 10 18 19 20 21 22 22 9 8 7 7 7 7 8 7 7 7 9
5 5 5 5 5 6 6 6 6 7 7 6 5 5 5 6 5 6 6 8 9 10 9 8 9 15 18 19 20 22 17 9 9 8 8 8 8 8 7 6 6 9
5 5 5 5 5 6 6 5 5 5 5 5 5 5 5 6 5 6 6 7 9 10 10 8 9 12 15 17 19 20 18 10 8 8 8 9 9 8 7 6 7 8
4 5 5 5 5 5 5 5 5 5 5 5 5 4 5 5 5 5 6 7 8 8 11 10 9 10 14 16 17 18 18 10 9 8 9 9 9 9 8 7 7 7
3 4 5 5 5 5 5 5 5 5 6 5 5 6 6 6 5 5 6 7 7 7 7 8 10 10 11 15 17 17 19 14 8 9 10 10 9 9 8 8 8 8
Wind_Direction
337 333 333 334 336 340 326 318 304 298 292 288 289 290 286 287 278 270 274 274 265 253 251 248 244 236 232 230 226 225 227 230 232 229 217 198 211 228 244 243 231 225
341 341 335 338 341 347 342 336 328 317 309 301 301 301 300 292 282 270 267 267 266 266 263 254 247 242 238 236 237 235 232 229 227 217 210 207 209 232 239 235 231 225
339 336 336 343 340 340 340 341 336 331 321 313 306 299 299 301 295 291 279 275 273 265 258 257 257 253 251 249 246 248 248 242 235 219 218 220 219 223 238 234 232 234
340 334 330 335 340 340 336 338 344 346 343 335 334 321 311 306 302 293 284 274 273 272 265 254 251 249 253 257 260 260 253 259 252 253 236 232 215 216 231 229 229 229
340 339 335 331 332 336 334 338 339 339 340 341 343 335 324 316 306 292 278 278 272 274 268 260 254 250 240 244 245 256 256 245 243 239 231 228 224 219 226 228 227 227
340 339 341 336 335 336 334 338 338 337 335 338 336 338 344 336 311 297 297 286 278 271 271 269 265 258 249 245 235 245 248 240 233 230 231 225 225 222 228 223 229 233
339 335 339 343 342 341 341 342 343 340 340 334 333 342 347 342 351 326 320 301 289 282 278 277 271 266 252 250 241 240 234 253 245 231 231 234 228 233 233 236 243 247
334 337 337 345 343 344 352 348 347 345 343 337 339 342 347 345 357 334 318 299 291 296 287 275 275 282 302 283 266 251 251 245 293 297 284 276 283 292 262 260 279 271
331 334 337 342 343 345 355 352 350 348 348 340 344 338 343 356 351 337 348 342 329 325 328 316 327 332 321 316 305 303 288 258 255 267 267 272 255 247 275 253 251 253
333 335 338 342 345 347 350 350 352 349 350 342 347 344 346 352 344 1 353 7 350 357 3 4 9 358 13 16 360 338 331 335 346 317 299 275 250 244 242 246 248 251
343 342 346 346 350 349 353 354 354 355 353 349 354 352 356 359 12 7 1 28 38 44 44 36 23 16 15 11 7 360 354 336 309 302 293 286 289 284 274 263 259 258
357 356 355 355 357 357 358 360 360 1 358 360 2 359 0 14 23 38 39 44 40 37 34 31 25 20 14 7 356 354 359 344 302 282 276 264 264 256 266 274 272 261
0 1 360 359 358 360 1 4 5 3 4 7 5 9 14 30 40 46 42 40 40 35 32 29 25 21 14 5 357 351 343 342 344 348 326 316 288 291 289 276 271 270
359 4 0 355 356 4 5 6 6 9 7 13 11 21 27 39 39 45 49 44 38 38 33 31 29 25 15 2 352 348 340 331 339 338 337 331 328 321 317 304 298 306
2 4 1 3 1 8 11 10 11 9 10 17 19 27 28 37 44 41 43 46 47 48 44 38 35 28 20 0 348 342 338 329 328 336 341 341 339 339 332 326 319 311
9 8 8 10 9 15 13 13 13 12 12 18 22 22 29 28 33 39 39 35 35 41 46 43 34 29 7 3 359 346 329 326 320 327 335 333 330 334 337 339 346 341
14 15 13 17 19 19 12 14 14 16 19 21 26 24 23 26 22 28 34 34 37 37 43 46 39 17 3 1 357 350 343 328 321 322 329 333 337 336 336 337 333 336
14 16 16 17 16 20 19 12 14 17 22 25 25 26 28 27 29 27 28 28 33 42 41 41 39 17 6 4 356 349 343 329 315 339 335 343 349 345 343 341 340 335
357 15 20 19 20 17 25 12 18 18 20 21 25 25 28 33 33 29 29 27 25 39 44 39 31 16 9 6 358 351 341 328 331 348 338 347 349 347 345 346 346 344
15 18 18 23 23 19 26 27 13 20 14 17 20 25 30 32 35 35 28 28 24 25 38 43 26 12 9 6 1 351 342 326 337 345 346 349 355 355 347 350 353 352
18 25 21 22 23 21 18 32 25 11 13 13 15 19 21 24 26 31 31 27 23 23 30 37 34 17 10 4 4 353 339 316 357 343 355 354 358 359 350 353 1 1
17 26 24 27 23 28 25 22 20 21 14 8 11 20 24 26 31 33 33 33 30 24 22 28 34 27 11 5 1 358 334 336 355 348 356 356 355 357 353 358 12 5
12 18 23 22 27 27 26 23 11 18 19 6 11 17 20 24 28 35 33 35 33 28 22 26 29 30 16 9 4 360 348 354 350 351 355 354 353 351 351 356 16 7
13 17 22 21 26 26 22 22 13 17 13 6 8 14 22 24 20 39 37 41 37 34 27 24 24 43 23 14 6 7 353 348 356 353 354 353 345 349 349 348 13 9
20 21 22 23 29 28 17 17 17 17 10 8 7 21 28 32 26 38 40 42 38 38 37 31 25 45 31 17 9 8 4 351 359 359 356 356 345 346 350 349 351 39
36 32 29 23 32 29 24 18 16 19 16 13 18 26 31 30 30 42 43 42 36 38 38 35 31 29 41 19 14 7 8 355 4 8 1 351 347 344 343 351 356 351